sat.trackr.live / text

‹ back to catalog

STARLINK-35569

NORAD 66471 · 2025-262R

PAYLOAD ACTIVE UNKNOWN

§ Identity

Operator
Country
US
Launch date
2025-11-15
Launch site
AFETR
Launch vehicle
Mass (kg)
RCS (m²)

Purposes: comms

External: N2YO · Heavens-Above · Gunter

§ Orbital elements

Epoch: 2026-09-20T02:57:03.816576Z

Period
94.27 min
Inclination
42.9989°
Eccentricity
0.0001381
Mean motion
15.27590610 rev/d
Perigee alt
482.1 km
Apogee alt
484.0 km
Semi-major
6,861.2 km
B*
4.7514e-4
RAAN
278.0084°
Arg perigee
263.0794°
Mean anomaly
96.9900°
Rev number
4,864

§ Raw data

STARLINK-355691 66471U 25262R   26263.12296084  .00012840  00000+0  47514-3 0  99902 66471  42.9989 278.0084 0001381 263.0794  96.9900 15.27590610 48641

JSON: /api/v1/satellites/66471 · /tle

For live sub-satellite position, see the globe view (requires WebGL).

§ Visibility from observer

Set your observer location to see the next 7 days of passes ≥ 10°. The values pass through the URL so the page stays shareable.

No JS? Fill the form by hand. The geolocation button needs JavaScript.